| time (UTC) | temp F | wind direction | speed MPH | gust MPH | rain 1hr in | rain 24hr in | rain mn in | humidity % | barometer mb |
| 20260904173414 | 99 | 122 | 1.0 | 4.0 | 0.00 | 0.00 | 0.00 | ||
| 20260904172914 | 99 | 231 | 6.0 | 7.0 | 0.00 | 0.00 | 0.00 | ||
| 20260904172414 | 99 | 149 | 4.0 | 7.0 | 0.00 | 0.00 | 0.00 | ||
| 20260904171915 | 99 | 128 | 4.0 | 3.0 | 0.00 | 0.00 | 0.00 | ||
| 20260904171414 | 99 | 151 | 3.0 | 5.0 | 0.00 | 0.00 | 0.00 | ||
| 20260904170915 | 96 | 100 | 4.0 | 5.0 | 0.00 | 0.00 | 0.00 | ||
| 20260904170414 | 97 | 246 | 7.0 | 8.0 | 0.00 | 0.00 | 0.00 | ||
| 20260904165414 | 96 | 101 | 3.0 | 6.0 | 0.00 | 0.00 | 0.00 | ||
| 20260904164415 | 93 | 227 | 5.0 | 10.0 | 0.00 | 0.00 | 0.00 | ||
| 20260904163914 | 94 | 210 | 4.0 | 7.0 | 0.00 | 0.00 | 0.00 | ||
| 20260904163414 | 94 | 235 | 6.0 | 10.0 | 0.00 | 0.00 | 0.00 | ||
| 20260904162915 | 94 | 241 | 6.0 | 11.0 | 0.00 | 0.00 | 0.00 | ||
| 20260904162414 | 92 | 231 | 6.0 | 6.0 | 0.00 | 0.00 | 0.00 | ||
| 20260904161915 | 92 | 238 | 1.0 | 7.0 | 0.00 | 0.00 | 0.00 | ||
| 20260904161414 | 92 | 222 | 4.0 | 4.0 | 0.00 | 0.00 | 0.00 | ||
| 20260904160914 | 92 | 211 | 4.0 | 8.0 | 0.00 | 0.00 | 0.00 | ||
| 20260904155915 | 91 | 241 | 5.0 | 4.0 | 0.00 | 0.00 | 0.00 | ||
| 20260904155415 | 91 | 222 | 2.0 | 8.0 | 0.00 | 0.00 | 0.00 | ||
| 20260904154915 | 90 | 232 | 4.0 | 7.0 | 0.00 | 0.00 | 0.00 | ||
| 20260904154415 | 90 | 237 | 6.0 | 6.0 | 0.00 | 0.00 | 0.00 | ||
| 20260904153414 | 89 | 217 | 4.0 | 7.0 | 0.00 | 0.00 | 0.00 | ||
| 20260904152914 | 89 | 234 | 4.0 | 9.0 | 0.00 | 0.00 | 0.00 | ||
| 20260904152414 | 89 | 237 | 3.0 | 6.0 | 0.00 | 0.00 | 0.00 | ||
| 20260904151914 | 90 | 291 | 4.0 | 8.0 | 0.00 | 0.00 | 0.00 | ||
| 20260904150414 | 88 | 263 | 6.0 | 7.0 | 0.00 | 0.00 | 0.00 | ||
| 20260904145414 | 87 | 214 | 5.0 | 9.0 | 0.00 | 0.00 | 0.00 | ||
| 20260904144415 | 84 | 224 | 4.0 | 4.0 | 0.00 | 0.00 | 0.00 | ||
| 20260904143415 | 83 | 66 | 3.0 | 2.0 | 0.00 | 0.00 | 0.00 | ||
| 20260904142915 | 82 | 187 | 2.0 | 4.0 | 0.00 | 0.00 | 0.00 | ||
| 20260904141415 | 82 | 191 | 2.0 | 1.0 | 0.00 | 0.00 | 0.00 | ||
| 20260904140417 | 82 | 176 | 2.0 | 1.0 | 0.00 | 0.00 | 0.00 | ||
| 20260904135415 | 81 | 58 | 1.0 | 4.0 | 0.00 | 0.00 | 0.00 | ||
| 20260904133916 | 81 | 220 | 2.0 | 7.0 | 0.00 | 0.00 | 0.00 | ||
| 20260904132415 | 81 | 121 | 1.0 | 1.0 | 0.00 | 0.00 | 0.00 | ||
| 20260904131705 | 80 | 184 | 2.0 | 2.0 | 0.00 | 0.00 | 0.00 | ||
| 20260904131416 | 80 | 184 | 2.0 | 2.0 | 0.00 | 0.00 | 0.00 | ||
| 20260904124915 | 79 | 23 | 1.0 | 4.0 | 0.00 | 0.00 | 0.00 | ||
| 20260904123416 | 79 | 110 | 0.0 | 0.0 | 0.00 | 0.00 | 0.00 | ||
| 20260904120646 | 79 | 189 | 0.0 | 1.0 | 0.00 | 0.00 | 0.00 | ||
| 20260904120416 | 79 | 189 | 0.0 | 1.0 | 0.00 | 0.00 | 0.00 | ||
| 20260904114416 | 79 | 196 | 0.0 | 2.0 | 0.00 | 0.00 | 0.00 | ||
| 20260904105916 | 79 | 93 | 0.0 | 1.0 | 0.00 | 0.00 | 0.00 | ||
| 20260904105417 | 79 | 99 | 0.0 | 1.0 | 0.00 | 0.00 | 0.00 | ||
| 20260904104416 | 79 | 152 | 1.0 | 0.0 | 0.00 | 0.00 | 0.00 | ||
| 20260904103416 | 79 | 199 | 2.0 | 3.0 | 0.00 | 0.00 | 0.00 | ||
| 20260904102917 | 79 | 39 | 1.0 | 3.0 | 0.00 | 0.00 | 0.00 | ||
| 20260904102415 | 79 | 187 | 0.0 | 1.0 | 0.00 | 0.00 | 0.00 | ||
| 20260904102241 | 79 | 146 | 1.0 | 2.0 | 0.00 | 0.00 | 0.00 | ||
| 20260904101918 | 79 | 146 | 1.0 | 2.0 | 0.00 | 0.00 | 0.00 | ||
| 20260904100917 | 79 | 11 | 1.0 | 4.0 | 0.00 | 0.00 | 0.00 | ||
| 20260904095417 | 79 | 127 | 0.0 | 0.0 | 0.00 | 0.00 | 0.00 | ||
| 20260904094416 | 79 | 238 | 1.0 | 2.0 | 0.00 | 0.00 | 0.00 | ||
| 20260904092416 | 79 | 211 | 1.0 | 2.0 | 0.00 | 0.00 | 0.00 | ||
| 20260904091416 | 79 | 228 | 1.0 | 2.0 | 0.00 | 0.00 | 0.00 | ||
| 20260904090916 | 79 | 183 | 1.0 | 2.0 | 0.00 | 0.00 | 0.00 | ||
| 20260904090640 | 80 | 258 | 1.0 | 4.0 | 0.00 | 0.00 | 0.00 | ||
| 20260904085916 | 80 | 258 | 1.0 | 4.0 | 0.00 | 0.00 | 0.00 | ||
| 20260904085634 | 80 | 24 | 0.0 | 0.0 | 0.00 | 0.00 | 0.00 | ||
| 20260904085416 | 80 | 24 | 0.0 | 0.0 | 0.00 | 0.00 | 0.00 | ||
| 20260904084416 | 80 | 25 | 1.0 | 1.0 | 0.00 | 0.00 | 0.00 | ||
| 20260904083917 | 80 | 11 | 1.0 | 1.0 | 0.00 | 0.00 | 0.00 | ||
| 20260904083417 | 80 | 203 | 2.0 | 3.0 | 0.00 | 0.00 | 0.00 | ||
| 20260904083050 | 80 | 131 | 2.0 | 4.0 | 0.00 | 0.00 | 0.00 | ||
| 20260904082416 | 80 | 131 | 2.0 | 4.0 | 0.00 | 0.00 | 0.00 | ||
| 20260904081917 | 79 | 55 | 2.0 | 4.0 | 0.00 | 0.00 | 0.00 | ||
| 20260904081634 | 79 | 35 | 1.0 | 2.0 | 0.00 | 0.00 | 0.00 | ||
| 20260904081417 | 79 | 35 | 1.0 | 2.0 | 0.00 | 0.00 | 0.00 | ||
| 20260904081247 | 79 | 125 | 0.0 | 2.0 | 0.00 | 0.00 | 0.00 | ||
| 20260904080917 | 79 | 125 | 0.0 | 2.0 | 0.00 | 0.00 | 0.00 | ||
| 20260904080417 | 79 | 24 | 2.0 | 4.0 | 0.00 | 0.00 | 0.00 | ||
| 20260904075920 | 79 | 256 | 1.0 | 2.0 | 0.00 | 0.00 | 0.00 | ||
| 20260904075417 | 79 | 222 | 1.0 | 6.0 | 0.00 | 0.00 | 0.00 | ||
| 20260904073917 | 80 | 48 | 1.0 | 2.0 | 0.00 | 0.00 | 0.00 | ||
| 20260904073417 | 80 | 228 | 1.0 | 4.0 | 0.00 | 0.00 | 0.00 | ||
| 20260904072917 | 80 | 234 | 1.0 | 2.0 | 0.00 | 0.00 | 0.00 | ||
| 20260904072417 | 80 | 251 | 2.0 | 3.0 | 0.00 | 0.00 | 0.00 | ||
| 20260904071917 | 80 | 27 | 1.0 | 2.0 | 0.00 | 0.00 | 0.00 | ||
| 20260904071417 | 80 | 173 | 2.0 | 3.0 | 0.00 | 0.00 | 0.00 | ||
| 20260904070419 | 80 | 146 | 2.0 | 3.0 | 0.00 | 0.00 | 0.00 | ||
| 20260904065918 | 80 | 193 | 2.0 | 3.0 | 0.00 | 0.00 | 0.00 | ||
| 20260904065417 | 80 | 162 | 4.0 | 4.0 | 0.00 | 0.00 | 0.00 | ||
| 20260904063917 | 80 | 280 | 1.0 | 1.0 | 0.00 | 0.00 | 0.00 | ||
| 20260904062417 | 81 | 52 | 3.0 | 2.0 | 0.00 | 0.00 | 0.00 | ||
| 20260904061917 | 80 | 175 | 3.0 | 3.0 | 0.00 | 0.00 | 0.00 | ||
| 20260904061417 | 80 | 182 | 4.0 | 3.0 | 0.00 | 0.00 | 0.00 | ||
| 20260904060417 | 81 | 214 | 2.0 | 1.0 | 0.00 | 0.00 | 0.00 | ||
| 20260904054917 | 81 | 196 | 1.0 | 2.0 | 0.00 | 0.00 | 0.00 | ||
| 20260904054455 | 81 | 153 | 2.0 | 3.0 | 0.00 | 0.00 | 0.00 | ||
| 20260904054417 | 81 | 153 | 2.0 | 3.0 | 0.00 | 0.00 | 0.00 | ||
| 20260904053917 | 81 | 79 | 1.0 | 5.0 | 0.00 | 0.00 | 0.00 | ||
| 20260904053417 | 80 | 186 | 2.0 | 5.0 | 0.00 | 0.00 | 0.00 | ||
| 20260904051417 | 81 | 127 | 1.0 | 1.0 | 0.00 | 0.00 | 0.00 | ||
| 20260904050923 | 81 | 82 | 2.0 | 3.0 | 0.00 | 0.00 | 0.00 | ||
| 20260904050917 | 81 | 82 | 2.0 | 3.0 | 0.00 | 0.00 | 0.00 | ||
| 20260904050417 | 81 | 214 | 2.0 | 5.0 | 0.00 | 0.00 | 0.00 | ||
| 20260904045918 | 81 | 179 | 3.0 | 3.0 | 0.00 | 0.00 | 0.00 | ||
| 20260904045417 | 81 | 137 | 2.0 | 2.0 | 0.00 | 0.00 | 0.00 | ||
| 20260904044917 | 81 | 175 | 2.0 | 6.0 | 0.00 | 0.00 | 0.00 | ||
| 20260904044417 | 82 | 211 | 1.0 | 1.0 | 0.00 | 0.00 | 0.00 | ||
| 20260904043920 | 81 | 182 | 1.0 | 2.0 | 0.00 | 0.00 | 0.00 | ||
| 20260904040417 | 82 | 41 | 2.0 | 5.0 | 0.00 | 0.00 | 0.00 | ||
| 20260904035417 | 82 | 66 | 3.0 | 5.0 | 0.00 | 0.00 | 0.00 | ||
| 20260904034417 | 82 | 160 | 3.0 | 6.0 | 0.00 | 0.00 | 0.00 | ||
| 20260904032418 | 83 | 155 | 3.0 | 5.0 | 0.00 | 0.00 | 0.00 | ||
| 20260904031418 | 82 | 182 | 2.0 | 5.0 | 0.00 | 0.00 | 0.00 | ||
| 20260904030418 | 83 | 128 | 2.0 | 5.0 | 0.00 | 0.00 | 0.00 | ||
| 20260904025418 | 83 | 151 | 3.0 | 5.0 | 0.00 | 0.00 | 0.00 | ||
| 20260904024418 | 83 | 107 | 4.0 | 6.0 | 0.00 | 0.00 | 0.00 | ||
| 20260904023418 | 84 | 204 | 3.0 | 3.0 | 0.00 | 0.00 | 0.00 | ||
| 20260904022919 | 84 | 148 | 2.0 | 4.0 | 0.00 | 0.00 | 0.00 | ||
| 20260904022418 | 84 | 158 | 1.0 | 4.0 | 0.00 | 0.00 | 0.00 | ||
| 20260904021918 | 84 | 134 | 2.0 | 1.0 | 0.00 | 0.00 | 0.00 | ||
| 20260904021418 | 84 | 194 | 3.0 | 5.0 | 0.00 | 0.00 | 0.00 | ||
| 20260904020918 | 84 | 189 | 1.0 | 3.0 | 0.00 | 0.00 | 0.00 | ||
| 20260904014418 | 86 | 25 | 4.0 | 3.0 | 0.00 | 0.00 | 0.00 | ||
| 20260904013918 | 86 | 163 | 3.0 | 5.0 | 0.00 | 0.00 | 0.00 | ||
| 20260904013418 | 87 | 92 | 3.0 | 4.0 | 0.00 | 0.00 | 0.00 | ||
| 20260904012418 | 87 | 108 | 5.0 | 7.0 | 0.00 | 0.00 | 0.00 | ||
| 20260904011919 | 87 | 208 | 2.0 | 3.0 | 0.00 | 0.00 | 0.00 | ||
| 20260904011418 | 87 | 166 | 2.0 | 5.0 | 0.00 | 0.00 | 0.00 | ||
| 20260904010418 | 87 | 148 | 4.0 | 4.0 | 0.00 | 0.00 | 0.00 | ||
| 20260904005417 | 87 | 172 | 4.0 | 7.0 | 0.00 | 0.00 | 0.00 | ||
| 20260904004918 | 88 | 92 | 4.0 | 5.0 | 0.00 | 0.00 | 0.00 | ||
| 20260904004417 | 88 | 125 | 1.0 | 9.0 | 0.00 | 0.00 | 0.00 | ||
| 20260904003418 | 88 | 168 | 4.0 | 4.0 | 0.00 | 0.00 | 0.00 | ||
| 20260904002918 | 88 | 228 | 3.0 | 4.0 | 0.00 | 0.00 | 0.00 | ||
| 20260904002418 | 89 | 106 | 3.0 | 7.0 | 0.00 | 0.00 | 0.00 | ||
| 20260904001418 | 89 | 149 | 5.0 | 5.0 | 0.00 | 0.00 | 0.00 | ||
| 20260904000918 | 90 | 148 | 4.0 | 5.0 | 0.00 | 0.00 | 0.00 | ||
| 20260904000418 | 90 | 101 | 4.0 | 8.0 | 0.00 | 0.00 | 0.00 | ||
| 20260903235918 | 90 | 99 | 6.0 | 7.0 | 0.00 | 0.00 | 0.00 | ||
| 20260903235418 | 90 | 82 | 3.0 | 4.0 | 0.00 | 0.00 | 0.00 | ||
| 20260903234919 | 90 | 72 | 3.0 | 7.0 | 0.00 | 0.00 | 0.00 | ||
| 20260903233418 | 90 | 190 | 4.0 | 6.0 | 0.00 | 0.00 | 0.00 | ||
| 20260903232918 | 91 | 159 | 4.0 | 8.0 | 0.00 | 0.00 | 0.00 | ||
| 20260903231918 | 91 | 120 | 6.0 | 8.0 | 0.00 | 0.00 | 0.00 | ||
| 20260903231418 | 92 | 124 | 5.0 | 9.0 | 0.00 | 0.00 | 0.00 | ||
| 20260903230419 | 91 | 83 | 5.0 | 4.0 | 0.00 | 0.00 | 0.00 | ||
| 20260903225919 | 93 | 82 | 3.0 | 4.0 | 0.00 | 0.00 | 0.00 | ||
| 20260903224418 | 94 | 220 | 4.0 | 4.0 | 0.00 | 0.00 | 0.00 | ||
| 20260903223918 | 94 | 113 | 1.0 | 4.0 | 0.00 | 0.00 | 0.00 | ||
| 20260903223418 | 94 | 180 | 4.0 | 6.0 | 0.00 | 0.00 | 0.00 | ||
| 20260903222418 | 93 | 153 | 3.0 | 6.0 | 0.00 | 0.00 | 0.00 | ||
| 20260903221918 | 93 | 137 | 1.0 | 3.0 | 0.00 | 0.00 | 0.00 | ||
| 20260903221418 | 94 | 165 | 4.0 | 6.0 | 0.00 | 0.00 | 0.00 | ||
| 20260903220918 | 95 | 156 | 4.0 | 7.0 | 0.00 | 0.00 | 0.00 | ||
| 20260903220418 | 94 | 218 | 1.0 | 4.0 | 0.00 | 0.00 | 0.00 | ||
| 20260903215418 | 95 | 248 | 3.0 | 4.0 | 0.00 | 0.00 | 0.00 | ||
| 20260903214918 | 95 | 159 | 4.0 | 3.0 | 0.00 | 0.00 | 0.00 | ||
| 20260903214418 | 96 | 113 | 4.0 | 5.0 | 0.00 | 0.00 | 0.00 | ||
| 20260903213919 | 95 | 56 | 3.0 | 7.0 | 0.00 | 0.00 | 0.00 | ||
| 20260903212919 | 94 | 58 | 3.0 | 7.0 | 0.00 | 0.00 | 0.00 | ||
| 20260903212419 | 94 | 179 | 5.0 | 8.0 | 0.00 | 0.00 | 0.00 | ||
| 20260903211918 | 94 | 92 | 2.0 | 6.0 | 0.00 | 0.00 | 0.00 | ||
| 20260903211419 | 94 | 90 | 3.0 | 6.0 | 0.00 | 0.00 | 0.00 | ||
| 20260903210419 | 94 | 184 | 4.0 | 8.0 | 0.00 | 0.00 | 0.00 | ||
| 20260903205419 | 94 | 139 | 3.0 | 3.0 | 0.00 | 0.00 | 0.00 | ||
| 20260903204918 | 96 | 110 | 3.0 | 4.0 | 0.00 | 0.00 | 0.00 | ||
| 20260903204419 | 95 | 89 | 2.0 | 2.0 | 0.00 | 0.00 | 0.00 | ||
| 20260903203918 | 92 | 153 | 4.0 | 4.0 | 0.00 | 0.00 | 0.00 | ||
| 20260903203419 | 96 | 152 | 4.0 | 6.0 | 0.00 | 0.00 | 0.00 | ||
| 20260903202918 | 97 | 241 | 4.0 | 7.0 | 0.00 | 0.00 | 0.00 | ||
| 20260903201918 | 92 | 125 | 2.0 | 5.0 | 0.00 | 0.00 | 0.00 | ||
| 20260903201418 | 94 | 104 | 4.0 | 5.0 | 0.00 | 0.00 | 0.00 | ||
| 20260903200919 | 93 | 177 | 4.0 | 4.0 | 0.00 | 0.00 | 0.00 | ||
| 20260903200419 | 92 | 155 | 4.0 | 4.0 | 0.00 | 0.00 | 0.00 | ||
| 20260903195919 | 92 | 203 | 3.0 | 8.0 | 0.00 | 0.00 | 0.00 | ||
| 20260903195419 | 92 | 179 | 3.0 | 4.0 | 0.00 | 0.00 | 0.00 | ||
| 20260903194919 | 91 | 148 | 5.0 | 8.0 | 0.00 | 0.00 | 0.00 | ||
| 20260903193919 | 90 | 87 | 3.0 | 7.0 | 0.00 | 0.00 | 0.00 | ||
| 20260903193419 | 90 | 221 | 3.0 | 8.0 | 0.00 | 0.00 | 0.00 | ||
| 20260903192538 | 90 | 114 | 3.0 | 4.0 | 0.00 | 0.00 | 0.00 | ||
| 20260903192419 | 90 | 114 | 3.0 | 4.0 | 0.00 | 0.00 | 0.00 | ||
| 20260903190419 | 90 | 191 | 4.0 | 6.0 | 0.00 | 0.00 | 0.00 | ||
| 20260903184421 | 90 | 210 | 4.0 | 10.0 | 0.00 | 0.00 | 0.00 | ||
| 20260903183919 | 91 | 114 | 4.0 | 7.0 | 0.00 | 0.00 | 0.00 | ||
| 20260903183419 | 90 | 165 | 4.0 | 6.0 | 0.00 | 0.00 | 0.00 | ||
| 20260903182419 | 91 | 55 | 4.0 | 11.0 | 0.00 | 0.00 | 0.00 | ||
| 20260903181919 | 90 | 72 | 5.0 | 7.0 | 0.00 | 0.00 | 0.00 | ||
| 20260903181419 | 92 | 197 | 5.0 | 9.0 | 0.00 | 0.00 | 0.00 | ||
| 20260903180421 | 90 | 176 | 3.0 | 4.0 | 0.00 | 0.00 | 0.00 | ||
| 20260903174419 | 90 | 37 | 4.0 | 6.0 | 0.00 | 0.00 | 0.00 |